This is the latest recevied weather packets stored in our database for station/object DK4SDR-10. If no packets are shown the sender has not sent any weather packets the latest 10 day(s).
| Time | Temp. | Humidity | Pressure | Rain* | Wind** | Luminosity | Snow |
|---|---|---|---|---|---|---|---|
| 1777513407 | 10.56° C | 35% | 1028 hPa | - | - | - | - |
| 1777511594 | 10.56° C | 35% | 1028 hPa | - | - | - | - |
| 1777510694 | 11.11° C | 35% | 1028 hPa | - | - | - | - |
| 1777509794 | 11.11° C | 34% | 1027.9 hPa | - | - | - | - |
| 1777508894 | 11.67° C | 34% | 1027.8 hPa | - | - | - | - |
| 1777507994 | 11.67° C | 33% | 1027.7 hPa | - | - | - | - |
| 1777507094 | 12.22° C | 33% | 1027.7 hPa | - | - | - | - |
| 1777506194 | 12.22° C | 33% | 1027.6 hPa | - | - | - | - |
| 1777505294 | 12.22° C | 33% | 1027.4 hPa | - | - | - | - |
| 1777504393 | 12.78° C | 32% | 1027.4 hPa | - | - | - | - |
| 1777503493 | 12.78° C | 32% | 1027.3 hPa | - | - | - | - |
| 1777502593 | 13.33° C | 31% | 1027.1 hPa | - | - | - | - |
| 1777501693 | 13.33° C | 31% | 1027 hPa | - | - | - | - |
| 1777500793 | 13.89° C | 31% | 1026.9 hPa | - | - | - | - |
| 1777499893 | 13.89° C | 31% | 1026.8 hPa | - | - | - | - |
| 1777498993 | 14.44° C | 31% | 1026.7 hPa | - | - | - | - |
| 1777498093 | 14.44° C | 30% | 1026.5 hPa | - | - | - | - |
| 1777497193 | 15° C | 29% | 1026.3 hPa | - | - | - | - |
| 1777496293 | 15° C | 29% | 1026.3 hPa | - | - | - | - |
| 1777495393 | 15.56° C | 28% | 1026 hPa | - | - | - | - |
| 1777494493 | 16.11° C | 27% | 1025.9 hPa | - | - | - | - |
| 1777493592 | 16.11° C | 27% | 1025.8 hPa | - | - | - | - |
| 1777492692 | 16.67° C | 26% | 1025.6 hPa | - | - | - | - |
| 1777491793 | 17.22° C | 26% | 1025.3 hPa | - | - | - | - |
| 1777490893 | 17.78° C | 25% | 1025.1 hPa | - | - | - | - |
* Rain since midnight (hover to see other rain measurements)
** Current wind speed in m/s (hover to see current wind gust speed)